Keps
Threads by month
- ----- 2024 -----
- December
- November
- October
- September
- August
- July
- June
- May
- April
- March
- February
- January
- ----- 2023 -----
- December
- November
- October
- September
- August
- July
- June
- May
- April
- March
- February
- January
- ----- 2022 -----
- December
- November
- October
- September
- August
- July
- June
- May
- April
- March
- February
- January
- ----- 2021 -----
- December
- November
- October
- September
- August
- July
- June
- May
- April
- March
- February
- January
- ----- 2020 -----
- December
- November
- October
- September
- August
- July
- June
- May
- April
- March
- February
- January
- ----- 2019 -----
- December
- November
- October
- September
- August
- July
- June
- May
- April
- March
- February
- January
- ----- 2018 -----
- December
- November
- October
- September
- August
- July
- June
- May
- April
- March
- February
- January
- ----- 2017 -----
- December
- November
- October
- September
- August
- July
- June
- May
- April
- March
- February
- January
- ----- 2016 -----
- December
- November
- October
- September
- August
- July
- June
- May
- April
- March
- February
- January
- ----- 2015 -----
- December
- November
- October
- September
- August
- July
- June
- May
- April
- March
- February
- January
- ----- 2014 -----
- December
- November
- October
- September
- August
- July
- June
- May
- April
- March
- February
- January
- ----- 2013 -----
- December
- November
- October
- September
- August
- July
- June
- May
- April
- March
- February
- January
- ----- 2012 -----
- December
- November
- October
- September
- August
- July
- June
- May
- April
- March
- February
- January
- ----- 2011 -----
- December
- November
- October
- September
- August
- July
- June
- May
- April
- March
- February
- January
- ----- 2010 -----
- December
- November
- October
- September
- August
- July
- June
- May
- April
- March
- February
- January
- ----- 2009 -----
- December
- November
- October
- September
- August
- July
- June
- May
- April
- March
- February
- January
- ----- 2008 -----
- December
- November
- October
- September
- August
- July
- June
- May
- April
- March
- February
- January
- ----- 2007 -----
- December
- November
- October
- September
- August
- July
- June
- May
- April
- March
- February
- January
- ----- 2006 -----
- December
- November
- October
- September
February 2018
- 1 participants
- 7 discussions
Nico Janssen, PA0DLO, noted that 18th Space Control Squadron (18SPCS) has
swapped the satellite names associated with object 41845 (was CAS-2T) and
another object 41847. Therefore CAS-2T is now object 41847. Nico's detailed
doppler measurements confirm that CAS-2T is in fact object 41847. (Note: the
payloads CAS-2T and KS-1Q still remain attached to the CZ 11 fourth stage.)
Thanks Nico, good catch!
The PICSAT team and Albert Van Duersen indicate that a better set of TLEs
for PICSAT is now object 43132. Nico Janssen has also noted that the best
TLE set for PICSAT has been unstable since November 14th of last year. Nico
says that now object 43132 and even object 43133 are better matches for
PICSAT than object 43131. Therefore, we will use object 43132 for PICSAT
for now. The problem is the closeness of objects 43131, 43132 and 43133.
Nico says he will continue to monitor these objects as they slowly separate
over time. More later.
1
0
SB KEPS @ AMSAT $ORB18053.N
2Line Orbital Elements 18053.AMSAT
HR AMSAT ORBITAL ELEMENTS FOR AMATEUR SATELLITES IN NASA FORMAT
FROM WA5QGD FORT WORTH,TX February 22, 2018
BID: ORB18053.N
DECODE 2-LINE ELSETS WITH THE FOLLOWING KEY:
1 AAAAAU 00 0 0 BBBBB.BBBBBBBB .CCCCCCCC 00000-0 00000-0 0 DDDZ
2 AAAAA EEE.EEEE FFF.FFFF GGGGGGG HHH.HHHH III.IIII JJ.JJJJJJJJKKKKKZ
KEY: A-CATALOGNUM B-EPOCHTIME C-DECAY D-ELSETNUM E-INCLINATION F-RAAN
G-ECCENTRICITY H-ARGPERIGEE I-MNANOM J-MNMOTION K-ORBITNUM Z-CHECKSUM
TO ALL RADIO AMATEURS BT
AO-07
1 07530U 74089B 18053.50885201 -.00000014 00000-0 18892-3 0 9996
2 07530 101.6718 022.6195 0011928 195.9714 273.5224 12.53631264979994
UO-11
1 14781U 84021B 18053.56701469 .00000054 00000-0 12872-4 0 9994
2 14781 097.6651 094.5775 0009988 098.3182 261.9165 14.82981919806454
LO-19
1 20442U 90005G 18053.41395249 .00000001 00000-0 16391-4 0 9995
2 20442 098.6006 352.6754 0012643 125.6983 234.5380 14.32887161467390
HUBBLE
1 20580U 90037B 18053.64269487 .00000434 00000-0 15635-4 0 9992
2 20580 028.4691 152.2797 0002685 352.7133 145.7619 15.08983221328066
MET-2/21
1 22782U 93055A 18053.48850417 .00000087 00000-0 64787-4 0 9998
2 22782 082.5512 184.9484 0023506 089.3647 339.6341 13.83808053236040
AO-27
1 22825U 93061C 18053.47257779 .00000002 00000-0 18516-4 0 9990
2 22825 098.8491 027.5932 0007826 327.8419 032.2284 14.30022274272901
IO-26
1 22826U 93061D 18053.51593076 .00000002 00000-0 18482-4 0 9991
2 22826 098.8433 027.6894 0008188 316.4123 043.6411 14.30353193273113
FO-29
1 24278U 96046B 18053.54200586 -.00000011 00000-0 23293-4 0 9991
2 24278 098.5281 268.0217 0351105 048.4782 314.5923 13.53081677062480
NOAA-15
1 25338U 98030A 18053.52811688 .00000005 00000-0 21126-4 0 9998
2 25338 098.7762 069.8455 0010288 194.7386 165.3495 14.25839524028675
GO-32
1 25397U 98043D 18053.40141825 .00000001 00000-0 19342-4 0 9996
2 25397 98.6391 355.8085 0001652 36.9456 323.1836 14.23640133 19390
ISS
1 25544U 98067A 18053.57111333 .00002316 00000-0 42206-4 0 9991
2 25544 051.6417 230.0986 0003352 123.7695 345.7256 15.54134237100693
NO-44
1 26931U 01043C 18053.48224887 -.00000035 00000-0 18510-4 0 9997
2 26931 067.0517 165.3828 0005929 282.0766 077.9671 14.30494683856073
SO-50
1 27607U 02058C 18053.52848394 -.00000020 00000-0 17780-4 0 9997
2 27607 064.5546 080.4966 0051576 355.7600 004.3058 14.75421494815912
CO-55
1 27844U 03031E 18053.48591139 .00000045 00000-0 40143-4 0 9994
2 27844 098.6893 063.8222 0009486 350.0225 010.0763 14.22095640759851
CO-57
1 27848U 03031J 18053.48378277 .00000033 00000-0 34810-4 0 9995
2 27848 098.6981 064.1783 0009586 000.3593 359.7590 14.21702052759732
RS-22
1 27939U 03042A 18053.63156274 .00000092 00000-0 25069-4 0 9997
2 27939 097.9707 195.8522 0013764 147.3085 278.9766 14.66659221769887
NOAA-18
1 28654U 05018A 18053.55495323 -.00000029 00000-0 97021-5 0 9998
2 28654 099.1598 086.5950 0015293 090.2418 270.0505 14.12367264657604
CO-58
1 28895U 05043F 18053.41669038 .00000136 00000-0 34963-4 0 9997
2 28895 097.8911 209.6333 0018105 074.0492 286.2704 14.63511086657086
Falconsat-3
1 30776U 07006E 18052.96447172 .00002341 00000-0 71143-4 0 9992
2 30776 035.4353 279.9638 0002116 053.4704 306.6217 15.33948066606614
CO-65
1 32785U 08021C 18053.53553699 .00000185 00000-0 25683-4 0 9990
2 32785 097.5528 071.1578 0014439 062.1726 298.0953 14.88064696532050
AAUSAT2
1 32788U 08021F 18053.51461449 .00000352 00000-0 37872-4 0 9991
2 32788 097.5341 084.7329 0012275 020.3936 339.7773 14.94227933532959
DO-64
1 32789U 08021G 18053.16012051 .00001424 00000-0 10240-3 0 9994
2 32789 97.5280 110.8167 0011582 336.5458 23.5239 15.05765532534473
CO-66
1 32791U 08021J 18053.54172013 .00000374 00000-0 43699-4 0 9992
2 32791 097.5446 076.2495 0014410 045.3082 314.9307 14.90472061532353
RS-30
1 32953U 08025A 18053.51003536 .00000009 00000-0 -62440-5 0 9998
2 32953 082.4993 084.0016 0020390 100.0111 260.3270 12.43081798442526
PRISM
1 33493U 09002B 18053.53766844 .00001248 00000-0 11644-3 0 9997
2 33493 098.1426 311.1627 0015281 342.2426 017.8267 14.96088435493202
NOAA-19
1 33591U 09005A 18053.58048902 .00000108 00000-0 84173-4 0 9994
2 33591 099.1291 029.4120 0013066 290.5784 069.3985 14.12256025465736
TISAT-1
1 36799U 10035E 18053.60757338 .00000271 00000-0 33646-4 0 9995
2 36799 098.0879 186.9216 0011608 219.5993 140.4377 14.90699830412882
JUGNU
1 37839U 11058B 18053.21668782 .00000309 00000-0 22989-4 0 9998
2 37839 19.9627 14.4061 0019089 59.9879 65.7986 14.12609838329092
SRMSAT
1 37841U 11058D 18053.35846413 .00000316 00000-0 28409-4 0 9996
2 37841 19.9731 60.3792 0011678 310.2192 198.7197 14.10598859328659
AO-71
1 37854U 11061E 18053.48928799 .00001734 00000-0 98168-4 0 9990
2 37854 101.7132 059.6889 0164679 053.5418 308.0844 15.05102816344128
HRBE
1 37855U 11061F 18053.47156743 .00001696 00000-0 94483-4 0 9995
2 37855 101.7261 057.2955 0177722 061.6684 300.2325 15.04074658343935
ALMASAT-1
1 38078U 12006B 18053.49840495 .00013705 38507-5 13191-3 0 9997
2 38078 069.4351 172.6081 0266175 278.6496 205.9769 15.34565756323025
HORYU-2
1 38340U 12025D 18053.47071776 .00000168 00000-0 32853-4 0 9994
2 38340 098.3741 071.2089 0010958 210.7037 149.3531 14.75501732299788
RS-40
1 38735U 12041C 18053.53813621 .00000020 00000-0 76222-4 0 9995
2 38735 082.4792 168.1005 0017049 200.3294 159.7108 12.42576801252761
BEESAT-3
1 39134U 13015E 18053.51214997 .00001147 00000-0 64133-4 0 9999
2 39134 064.8635 137.7708 0023783 226.2946 133.6211 15.18827482267100
BEESAT-2
1 39136U 13015G 18053.47599819 .00001163 00000-0 70093-4 0 9995
2 39136 064.8701 152.2544 0029881 248.1369 111.6578 15.15887325266811
ZACUBE-1
1 39417U 13066B 18053.51746568 .00000178 00000-0 28825-4 0 9994
2 39417 097.6008 088.2028 0059533 169.3728 190.8759 14.80878327229825
TRITON-1
1 39427U 13066M 18053.48873909 .00000141 00000-0 30869-4 0 9992
2 39427 097.6383 057.0444 0112681 266.8338 091.9971 14.67613606227560
GOMX-1
1 39430U 13066Q 18053.50284393 .00000241 00000-0 52982-4 0 9993
2 39430 097.6864 038.7152 0151057 333.1128 026.2301 14.59027322226242
LO-74
1 39440U 13066AA 18053.47664284 .00000164 00000-0 29955-4 0 9999
2 39440 097.6092 075.4868 0079971 207.1097 152.5927 14.75614828227808
AO-73
1 39444U 13066AE 18053.57310678 .00000206 00000-0 31883-4 0 9999
2 39444 097.6019 089.6346 0058831 165.0412 195.2560 14.81643615228096
SPROUT
1 39770U 14029E 18053.50888174 .00000611 00000-0 74958-4 0 9995
2 39770 097.8728 155.5657 0008151 217.5298 142.5363 14.86674881203329
DUCHIFAT-1
1 40021U 14033M 18053.44436852 .00000447 00000-0 51977-4 0 9999
2 40021 097.9177 331.9578 0012507 190.8912 169.2037 14.90203014199865
